Time,TemperatureF,DewpointF,PressureIn,WindDirection,WindDirectionDegrees,WindSpeedMPH,WindSpeedGustMPH,Humidity,HourlyPrecipIn,Conditions,Clouds,dailyrainin,SoftwareType,DateUTC
2013-10-31 00:12:00,28.0,27.0,30.21,WNW,284,8.0,-999.0,95,-99.99,,,-99.99,,2013-10-31 06:12:00,
2013-10-31 00:21:00,29.0,28.0,30.21,WNW,290,4.0,-999.0,95,-99.99,,,-99.99,,2013-10-31 06:21:00,
2013-10-31 00:42:00,24.0,22.0,30.22,NE,35,4.0,-999.0,91,-99.99,,,-99.99,,2013-10-31 06:42:00,
2013-10-31 00:53:00,21.0,19.0,30.22,NE,48,4.0,-999.0,93,-99.99,,,-99.99,,2013-10-31 06:53:00,
2013-10-31 01:11:00,22.0,21.0,30.22,NNE,30,6.0,-999.0,94,-99.99,,,-99.99,,2013-10-31 07:11:00,
2013-10-31 01:21:00,24.0,23.0,30.22,NE,41,4.0,-999.0,95,-99.99,,,-99.99,,2013-10-31 07:21:00,
2013-10-31 01:42:00,25.0,24.0,30.22,NE,34,5.0,-999.0,95,-99.99,,,-99.99,,2013-10-31 07:42:00,
2013-10-31 01:52:00,25.0,24.0,30.22,North,5,4.0,-999.0,95,-99.99,,,-99.99,,2013-10-31 07:52:00,
2013-10-31 02:12:00,25.0,24.0,30.22,NNW,334,3.0,-999.0,95,-99.99,,,-99.99,,2013-10-31 08:12:00,
2013-10-31 02:22:00,25.0,24.0,30.22,North,349,1.0,-999.0,95,-99.99,,,-99.99,,2013-10-31 08:22:00,
2013-10-31 02:42:00,25.0,24.0,30.22,NNE,14,2.0,-999.0,95,-99.99,,,-99.99,,2013-10-31 08:42:00,
2013-10-31 02:52:00,25.0,24.0,30.22,North,10,2.0,-999.0,95,-99.99,,,-99.99,,2013-10-31 08:52:00,
2013-10-31 03:11:00,24.0,23.0,30.22,North,10,0.0,-999.0,95,-99.99,,,-99.99,,2013-10-31 09:11:00,
2013-10-31 03:21:00,24.0,23.0,30.22,South,172,0.0,-999.0,95,-99.99,,,-99.99,,2013-10-31 09:21:00,
2013-10-31 03:43:00,23.0,22.0,30.22,South,172,0.0,-999.0,94,-99.99,,,-99.99,,2013-10-31 09:43:00,
2013-10-31 03:53:00,24.0,23.0,30.22,South,172,0.0,-999.0,95,-99.99,,,-99.99,,2013-10-31 09:53:00,
2013-10-31 04:13:00,25.0,24.0,30.21,South,186,0.0,-999.0,95,-99.99,,,-99.99,,2013-10-31 10:13:00,
2013-10-31 04:23:00,25.0,24.0,30.21,SSE,163,1.0,-999.0,95,-99.99,,,-99.99,,2013-10-31 10:23:00,
2013-10-31 04:42:00,24.0,23.0,30.20,SSE,164,0.0,-999.0,94,-99.99,,,-99.99,,2013-10-31 10:42:00,
2013-10-31 04:53:00,24.0,23.0,30.20,SSE,164,0.0,-999.0,94,-99.99,,,-99.99,,2013-10-31 10:53:00,
2013-10-31 05:12:00,24.0,22.0,30.20,South,172,1.0,-999.0,93,-99.99,,,-99.99,,2013-10-31 11:12:00,
2013-10-31 05:21:00,24.0,22.0,30.20,SSW,202,2.0,-999.0,93,-99.99,,,-99.99,,2013-10-31 11:21:00,
2013-10-31 05:42:00,24.0,22.0,30.20,SSW,202,0.0,-999.0,92,-99.99,,,-99.99,,2013-10-31 11:42:00,
2013-10-31 05:52:00,25.0,23.0,30.21,West,270,3.0,-999.0,92,-99.99,,,-99.99,,2013-10-31 11:52:00,
2013-10-31 06:12:00,23.0,21.0,30.22,North,350,3.0,-999.0,92,-99.99,,,-99.99,,2013-10-31 12:12:00,
2013-10-31 06:21:00,21.0,19.0,30.22,NE,34,4.0,-999.0,92,-99.99,,,-99.99,,2013-10-31 12:21:00,
2013-10-31 06:52:00,22.0,21.0,30.21,NNE,30,2.0,-999.0,94,-99.99,,,-99.99,,2013-10-31 12:52:00,
2013-10-31 07:11:00,22.0,21.0,30.21,NE,45,3.0,-999.0,94,-99.99,,,-99.99,,2013-10-31 13:11:00,
2013-10-31 07:22:00,22.0,21.0,30.22,NE,36,4.0,-999.0,94,-99.99,,,-99.99,,2013-10-31 13:22:00,
2013-10-31 07:42:00,22.0,21.0,30.22,NE,45,0.0,-999.0,94,-99.99,,,-99.99,,2013-10-31 13:42:00,
2013-10-31 07:52:00,21.0,19.0,30.22,NE,45,2.0,-999.0,93,-99.99,,,-99.99,,2013-10-31 13:52:00,
2013-10-31 08:11:00,20.0,18.0,30.22,NE,44,2.0,-999.0,93,-99.99,,,-99.99,,2013-10-31 14:11:00,
2013-10-31 08:21:00,20.0,18.0,30.22,NE,44,0.0,-999.0,93,-99.99,,,-99.99,,2013-10-31 14:21:00,
2013-10-31 08:42:00,21.0,20.0,30.23,NE,44,0.0,-999.0,94,-99.99,,,-99.99,,2013-10-31 14:42:00,
2013-10-31 08:52:00,22.0,21.0,30.23,NE,44,0.0,-999.0,94,-99.99,,,-99.99,,2013-10-31 14:52:00,
2013-10-31 09:11:00,22.0,21.0,30.24,SSE,160,0.0,-999.0,94,-99.99,,,-99.99,,2013-10-31 15:11:00,
2013-10-31 10:22:00,28.0,26.0,30.23,SSE,161,1.0,-999.0,93,-99.99,,,-99.99,,2013-10-31 16:22:00,
2013-10-31 10:53:00,30.0,28.0,30.24,NNW,338,0.0,-999.0,94,-99.99,,,-99.99,,2013-10-31 16:53:00,
2013-10-31 11:12:00,31.0,29.0,30.24,North,9,0.0,-999.0,94,-99.99,,,-99.99,,2013-10-31 17:12:00,
2013-10-31 11:22:00,32.0,30.0,30.24,NNE,33,0.0,-999.0,93,-99.99,,,-99.99,,2013-10-31 17:22:00,
2013-10-31 11:43:00,32.0,30.0,30.24,NNE,12,2.0,-999.0,94,-99.99,,,-99.99,,2013-10-31 17:43:00,
2013-10-31 11:52:00,32.0,30.0,30.24,NE,43,1.0,-999.0,94,-99.99,,,-99.99,,2013-10-31 17:52:00,
2013-10-31 12:21:00,34.0,33.0,30.23,NE,36,0.0,-999.0,95,-99.99,,,-99.99,,2013-10-31 18:21:00,
2013-10-31 12:42:00,34.0,32.0,30.22,SSW,194,0.0,-999.0,94,-99.99,,,-99.99,,2013-10-31 18:42:00,
2013-10-31 12:52:00,34.0,32.0,30.22,SSW,194,0.0,-999.0,94,-99.99,,,-99.99,,2013-10-31 18:52:00,
2013-10-31 13:21:00,37.0,35.0,30.19,SSW,194,0.0,-999.0,94,-99.99,,,-99.99,,2013-10-31 19:21:00,
2013-10-31 13:52:00,38.0,37.0,30.15,East,93,0.0,-999.0,95,-99.99,,,-99.99,,2013-10-31 19:52:00,
2013-10-31 14:21:00,39.0,38.0,30.15,SE,129,1.0,-999.0,95,-99.99,,,-99.99,,2013-10-31 20:21:00,
2013-10-31 14:42:00,39.0,38.0,30.14,SE,143,4.0,-999.0,96,-99.99,,,-99.99,,2013-10-31 20:42:00,
2013-10-31 15:54:00,44.0,39.0,30.10,NNE,15,7.0,-999.0,83,-99.99,,,-99.99,,2013-10-31 21:54:00,
2013-10-31 16:13:00,44.0,38.0,30.10,WNW,295,7.0,-999.0,79,-99.99,,,-99.99,,2013-10-31 22:13:00,
2013-10-31 16:24:00,48.0,34.0,30.08,WNW,296,20.0,-999.0,59,-99.99,,,-99.99,,2013-10-31 22:24:00,
2013-10-31 16:53:00,47.0,32.0,30.10,WNW,296,23.0,-999.0,56,-99.99,,,-99.99,,2013-10-31 22:53:00,
2013-10-31 17:22:00,46.0,30.0,30.11,West,278,26.0,-999.0,53,-99.99,,,-99.99,,2013-10-31 23:22:00,
2013-10-31 17:53:00,45.0,29.0,30.10,WNW,293,24.0,-999.0,54,-99.99,,,-99.99,,2013-10-31 23:53:00,
2013-10-31 18:21:00,45.0,29.0,30.11,WNW,292,28.0,-999.0,53,-99.99,,,-99.99,,2013-11-01 00:21:00,
2013-10-31 18:42:00,43.0,28.0,30.10,West,277,24.0,-999.0,55,-99.99,,,-99.99,,2013-11-01 00:42:00,
2013-10-31 18:52:00,44.0,28.0,30.11,WNW,291,27.0,-999.0,53,-99.99,,,-99.99,,2013-11-01 00:52:00,
2013-10-31 19:22:00,43.0,28.0,30.12,WNW,282,26.0,-999.0,54,-99.99,,,-99.99,,2013-11-01 01:22:00,
2013-10-31 19:42:00,43.0,28.0,30.13,WNW,290,26.0,-999.0,54,-99.99,,,-99.99,,2013-11-01 01:42:00,
2013-10-31 19:52:00,43.0,28.0,30.14,WNW,284,24.0,-999.0,56,-99.99,,,-99.99,,2013-11-01 01:52:00,
2013-10-31 20:21:00,43.0,28.0,30.13,WNW,290,28.0,-999.0,56,-99.99,,,-99.99,,2013-11-01 02:21:00,
2013-10-31 20:52:00,41.0,29.0,30.16,WNW,299,18.0,-999.0,62,-99.99,,,-99.99,,2013-11-01 02:52:00,
2013-10-31 21:21:00,40.0,29.0,30.16,WNW,286,14.0,-999.0,64,-99.99,,,-99.99,,2013-11-01 03:21:00,
2013-10-31 21:54:00,41.0,29.0,30.17,NNW,332,9.0,-999.0,63,-99.99,,,-99.99,,2013-11-01 03:54:00,
2013-10-31 22:24:00,39.0,29.0,30.18,North,355,6.0,-999.0,67,-99.99,,,-99.99,,2013-11-01 04:24:00,
2013-10-31 22:54:00,39.0,29.0,30.19,NW,317,7.0,-999.0,67,-99.99,,,-99.99,,2013-11-01 04:54:00,
2013-10-31 23:23:00,40.0,29.0,30.19,North,5,6.0,-999.0,65,-99.99,,,-99.99,,2013-11-01 05:23:00,
2013-10-31 23:42:00,39.0,29.0,30.20,NNW,331,7.0,-999.0,66,-99.99,,,-99.99,,2013-11-01 05:42:00,
2013-10-31 23:53:00,39.0,30.0,30.19,NNW,342,6.0,-999.0,70,-99.99,,,-99.99,,2013-11-01 05:53:00,